This is the latest recevied weather packets stored in our database for station/object W7PLC. If no packets are shown the sender has not sent any weather packets the latest 10 day(s).
| Time | Temp. | Humidity | Pressure | Rain* | Wind** | Luminosity | Snow |
|---|---|---|---|---|---|---|---|
| 1777422902 | 12.78° C | 72% | 1021.9 hPa | 0 mm | - | 33 W/m² | - |
| 1777422599 | 12.78° C | 72% | 1021.8 hPa | 0 mm | - | 33 W/m² | - |
| 1777422295 | 12.78° C | 72% | 1021.8 hPa | 0 mm | - | 32 W/m² | - |
| 1777421989 | 12.78° C | 72% | 1021.8 hPa | 0 mm | - | 30 W/m² | - |
| 1777421684 | 12.78° C | 72% | 1021.7 hPa | 0 mm | - | 32 W/m² | - |
| 1777421379 | 12.78° C | 71% | 1021.8 hPa | 0 mm | - | 35 W/m² | - |
| 1777421076 | 12.78° C | 71% | 1021.7 hPa | 0 mm | - | 38 W/m² | - |
| 1777420772 | 12.78° C | 71% | 1021.7 hPa | 0 mm | - | 38 W/m² | - |
| 1777420468 | 12.78° C | 71% | 1022 hPa | 0 mm | - | 42 W/m² | - |
| 1777420166 | 12.78° C | 71% | 1021.5 hPa | 0 mm | - | 44 W/m² | - |
| 1777419861 | 12.78° C | 72% | 1021.6 hPa | 0 mm | - | 48 W/m² | - |
| 1777419559 | 13.33° C | 71% | 1021.8 hPa | 0 mm | - | 52 W/m² | - |
| 1777419257 | 13.33° C | 71% | 1021.5 hPa | 0 mm | - | 52 W/m² | - |
| 1777418955 | 13.33° C | 71% | 1021.7 hPa | 0 mm | - | 60 W/m² | - |
| 1777418650 | 13.33° C | 70% | 1021.6 hPa | 0 mm | - | 57 W/m² | - |
| 1777418346 | 13.33° C | 69% | 1021.5 hPa | 0 mm | - | 60 W/m² | - |
| 1777418042 | 13.89° C | 68% | 1021.6 hPa | 0 mm | - | 61 W/m² | - |
| 1777417737 | 13.33° C | 69% | 1021.5 hPa | 0 mm | - | 55 W/m² | - |
| 1777417433 | 13.89° C | 68% | 1021.7 hPa | 0 mm | - | 63 W/m² | - |
| 1777417131 | 13.89° C | 69% | 1021.5 hPa | 0 mm | - | 81 W/m² | - |
| 1777416826 | 13.89° C | 69% | 1021.7 hPa | 0 mm | - | 89 W/m² | - |
| 1777416522 | 13.89° C | 69% | 1021.4 hPa | 0 mm | - | 75 W/m² | - |
| 1777416218 | 13.33° C | 69% | 1021.7 hPa | 0 mm | - | 86 W/m² | - |
| 1777415917 | 13.33° C | 70% | 1021.5 hPa | 0 mm | - | 104 W/m² | - |
| 1777415614 | 13.33° C | 70% | 1021.5 hPa | 0 mm | - | 107 W/m² | - |
* Rain latest hour (hover to see other rain measurements)
** Current wind speed in m/s (hover to see current wind gust speed)